Location: Banff
(51.1667°N, 115.5667°W)
Time: 07:11:12
(UTC+00:00)

S-56A Canister/Altair - Pass Details

Date: 03 December 2020
Orbit: 633 x 2499 km, 38.9° (Epoch: 21 January)

Event Time Altitude Azimuth Distance (km) Brightness Sun altitude
Rises 22:50:25 0° 181° (S) 6,140 12.9 4.7°
Reaches altitude 10° 22:58:20 10° 156° (SSE) 4,942 11.9 3.8°
Maximum altitude 23:02:49 12° 137° (SE) 4,568 11.5 3.3°
Drops below altitude 10° 23:06:59 10° 118° (ESE) 4,535 11.3 2.8°
Sets 23:13:18 0° 92° (E) 5,111 11.3 2.1°
